星链-1035 (STARLINK-1035 )

导读 | 星芒AI

STARLINK-1035 是 SpaceX Starlink 项目中的一颗低轨通信卫星,属于第 10 批发射的 Starlink 卫星群。该卫星于 2020 年 11 月 11 日由猎鹰 9 号火箭送入近地轨道,旨在为全球提供高速互联网服务。它运行在约 550 公里的高度,采用先进的相控阵天线和激光通信技术,以提升网络连接的稳定性和速度。作为 Starlink 系统的一部分,STARLINK-1035 有助于扩大卫星互联网的覆盖范围,特别是在偏远和网络基础设施薄弱的地区。

基本信息
目录编号:
44740
目录名称:
STARLINK-1035
国际标识:
2019-074AD
轨道中心:
EARTH
卫星名称:
星链-1035
卫星全名:
星链-1035 (STARLINK-1035 )
卫星状态:
已陨落 最后检测时间 2025-04-12
发射日期:
2019-11-11 UTC
国别 :
美国 (US)
星等 :
--
轨道信息
数据来源 国际轨道数据
星历时间: 2025-04-12T14:38:35+0800
轨道信息已过期200天
半长轴: 6524.049km
偏心率: 0.0002605
轨道倾角: 53.025°
近地点辐角 326.618°
升交点赤经 202.268°
平近点角 131.468°
近地点: 144.214km
远地点: 147.614km
周期: 87.405分钟
每日圈数: 16.475058
详细信息
固有亮度:
5
最大亮度:
2.5
卫星平台:
Starlink V1.0
覆盖范围:
全球
运营商:
太空探索技术公司
运营商所在国:
美国
制造商(研发单位):
太空探索技术公司
制造商所在国:
美国
使用方式:
暂无
卫星简介
星链(Starlink)计划是由太空探索技术公司(SpaceX)提出的一个巨型低轨卫星互联网星座项目,计划在2019年至2024年间在太空搭建由约1.2万颗卫星组成的“星链”网络,其中1584颗将部署在地球上空550千米处的近地轨道,并从2020年开始工作。该卫星仍在工作。